Location: Unspecified
(47.5840°N, 122.3000°W)
Time: 22:44:06
(UTC+00:00)

USA 59 Rocket - Visible Passes

Search period start: 14 March 2026 00:00
Search period end: 24 March 2026 00:00
Orbit: 368 x 1670 km, 63.3° (Epoch: 14 March)

Date Brightness Start Highest point End Pass type
(mag) Time Alt. Az. Time Alt. Az. Time Alt. Az.
14 Mar 2.2 11:42:29 12° N 11:43:55 15° NE 11:46:09 10° ENE visible
14 Mar -0.3 13:29:20 10° NW 13:32:45 74° SW 13:37:19 10° SSE visible
15 Mar 1.1 12:20:26 14° NNW 12:23:01 36° NE 12:26:54 10° ESE visible
16 Mar 2.4 11:12:52 15° NNE 11:13:02 15° NE 11:15:12 10° ENE visible
16 Mar -0.4 12:58:28 10° NW 13:01:53 77° SW 13:06:26 10° SE visible
17 Mar 1.2 11:50:57 27° N 11:52:07 34° NE 11:55:57 10° ESE visible
17 Mar 0.9 13:37:35 10° WNW 13:40:42 26° SW 13:44:37 10° S visible
18 Mar 2.8 10:43:33 12° ENE 10:43:33 12° ENE 10:44:11 10° ENE visible
18 Mar -0.4 12:29:08 28° NW 12:30:57 80° SW 12:35:30 10° SE visible
19 Mar 0.8 03:58:57 10° SSW 04:01:02 25° S 04:01:02 25° S visible
19 Mar 1.4 11:21:52 31° ENE 11:21:52 31° ENE 11:24:57 10° ESE visible
19 Mar 0.8 13:07:28 16° WNW 13:09:44 27° SW 13:13:42 10° S visible
20 Mar 1.5 02:51:59 10° SE 02:52:46 11° ESE 02:53:31 10° ESE visible
20 Mar 0.6 04:37:35 10° SW 04:40:02 37° WSW 04:40:02 37° WSW visible
20 Mar -0.3 12:00:21 71° SSE 12:00:21 71° SSE 12:04:30 10° SE visible
21 Mar 0.0 03:27:58 10° S 03:31:23 33° SE 03:33:15 18° ENE visible
21 Mar 2.1 05:17:28 10° W 05:18:53 17° WNW 05:18:53 17° WNW visible
21 Mar 2.6 10:53:23 12° ESE 10:53:23 12° ESE 10:53:53 10° ESE visible
21 Mar 0.8 12:39:00 27° SW 12:39:00 27° SW 12:42:43 10° S visible
22 Mar -0.4 04:06:31 10° SW 04:10:05 65° NW 04:11:57 21° NNE visible
22 Mar 2.1 11:32:13 17° SE 11:32:13 17° SE 11:33:26 10° SE visible
23 Mar 0.2 02:56:55 10° S 03:00:19 32° SE 03:03:09 10° ENE visible
23 Mar 1.8 04:46:21 10° W 04:48:55 21° NW 04:50:30 15° N visible
23 Mar 2.4 12:11:15 12° S 12:11:15 12° S 12:11:40 10° S visible
